Regional Weather Roundup
Issued by NWS

Home | Current Version | Previous Version | Text Only | Print | Product List | Glossary On
Versions: 1 2 3 4 5 6 7 8 9 10 11 12 13 14 15 16 17 18 19 20 21 22 23 24 25 26 27 28 29 30 31 32 33 34 35 36 37 38 39 40 41 42 43 44 45 46 47 48 49 50
000
ASUS43 KDTX 311310
RWRMI
MICHIGAN HOURLY REGIONAL WEATHER ROUNDUP
NATIONAL WEATHER SERVICE DETROIT/PONTIAC MI
900 AM EDT FRI JUL 31 2015

NOTE: "FAIR" INDICATES FEW OR NO CLOUDS BELOW 12,000 FEET WITH NO
SIGNIFICANT WEATHER AND/OR OBSTRUCTION TO VISIBILITY.

MIZ047>049-052>055-059>063-066>070-074>076-081>083-311400-
SOUTHEAST LOWER MICHIGAN

CITY           SKY/WX    TMP DP  RH WIND       PRES   REMARKS
ADRIAN         SUNNY     71  61  70 NW9       29.99S
ALMA           SUNNY     71  63  75 W8        29.93F
ANN ARBOR      SUNNY     72  61  68 W9        29.96S
BAD AXE        SUNNY     69  60  73 W9        29.90F
DETROIT CITY   SUNNY     75  59  57 W7        29.94S
DETROIT        SUNNY     75  61  61 W6        29.96S
FLINT          SUNNY     74  61  63 SW8       29.94S
GROSSE ILE     SUNNY     73  61  64 W5        29.94S
HILLSDALE      SUNNY     73  63  72 W8        30.01S
HOWELL         SUNNY     72  61  68 W7        29.96F

CITY           SKY/WX    TMP DP  RH WIND       PRES   REMARKS
JACKSON        SUNNY     71  61  70 W8        29.98S
LAMBERTVILLE   SUNNY     73  62  68 W5        29.98S
LANSING        SUNNY     72  60  66 W10       29.96F
LAPEER         NOT AVBL
MASON          SUNNY     69  60  72 W6        29.97S
MONROE         SUNNY     72  62  70 W6        29.96S
MT. CLEMENS    SUNNY     76  61  60 W9        29.91F
PONTIAC        SUNNY     72  60  66 SW7       29.94F
PORT HOPE        N/A     71  63  75 SW8       29.87S
PORT HURON     SUNNY     72  63  73 SW3       29.92F
TRI CITIES     SUNNY     72  61  68 W14       29.92F
YPSILANTI      SUNNY     78  61  55 W8        29.96S
$$
MIZ043>046-050>051-056>058-064>065-071>073-077>080-311400-
SOUTHWEST LOWER MICHIGAN

CITY           SKY/WX    TMP DP  RH WIND       PRES   REMARKS
BATTLE CREEK   SUNNY     74  61  63 W12       29.99F
BENTON HARBOR  SUNNY     77  63  61 W8        29.99F
BIG RAPIDS     SUNNY     71  61  70 W10       29.92F
COLDWATER      SUNNY     70  62  77 W3        30.01S
HOLLAND        SUNNY     76  62  62 W8        29.97F
GRAND RAPIDS   MOSUNNY   74  62  66 W10       29.96F
KALAMAZOO      SUNNY     74  62  66 W8        29.99F
MARSHALL       SUNNY     72  62  71 W6        29.98F
MUSKEGON       MOSUNNY   76  53  44 W12       29.95S
$$
MIZ016>042-311400-
NORTHERN LOWER MICHIGAN

CITY           SKY/WX    TMP DP  RH WIND       PRES   REMARKS
ALPENA         SUNNY     72  59  63 W8        29.84F
BEAVER ISLAND  MOSUNNY   69  62  77 W13G18    29.83F
BELLAIRE       SUNNY     71  61  71 SW5       29.86F
CADILLAC       MOSUNNY   68  62  80 SW5       29.91F
CHARLEVOIX     SUNNY     71  62  74 W15       29.87F
FRANKFORT      SUNNY     71  64  78 W9        29.89S
GAYLORD        PTSUNNY   68  61  78 W12       29.88S
GRAYLING       SUNNY     68  59  73 W8        29.89S
HARBOR SPRINGS PTSUNNY   70  63  78 SW7       29.84F
HOUGHTON LAKE  MOSUNNY   69  60  73 W10       29.90F
MANISTEE       SUNNY     72  59  64 W13       29.91S
OSCODA         SUNNY     74  58  58 W9        29.85F
PELLSTON       SUNNY     71  62  73 W6        29.84S
TRAVERSE CITY  MOSUNNY   73  60  63 W10       29.85F
$$
MIZ007>008-015-311400-
EASTERN UPPER MICHIGAN

CITY           SKY/WX    TMP DP  RH WIND       PRES   REMARKS
KINROSS        SUNNY     64  57  77 CALM      29.82S
MACKINAC ISLAN   N/A     69  61  76 W10       29.82F
$$
MIZ004>006-011>014-085-311400-
CENTRAL UPPER MICHIGAN

CITY           SKY/WX    TMP DP  RH WIND       PRES   REMARKS
MANISTIQUE     PTSUNNY   68  57  68 W12       29.83S
ESCANABA       SUNNY     70  57  64 W13G20    29.84S
MENOMINEE      PTSUNNY   66  55  68 W5        29.88S
SAWYER-GWINN   MOSUNNY   63  54  72 W12G17    29.86S
$$
MIZ001>003-009>011-084-311400-
WESTERN UPPER MICHIGAN

CITY           SKY/WX    TMP DP  RH WIND       PRES   REMARKS
IRON MOUNTAIN  MOSUNNY   67  56  67 W12       29.88S
HOUGHTON       PTSUNNY   63  56  78 W15       29.85R
COPPER HARBOR    N/A     66  53  63 N12G21    29.82R
IRONWOOD       SUNNY     64  57  77 W12       29.92R
$$

ABBREVIATIONS USED IN REMARKS
   TC - TEMPERATURE IN CELSIUS
  WCI - WIND CHILL INDEX
   HX - HEAT INDEX
  VSB - VISIBILITY



USA.gov is the U.S. government's official web portal to all federal, state and local government web resources and services.